OPS 4682 DEB, 27545

Orbit data source: Space-Track

OPS 4682 DEB, 27545 is space debris in LEO originally from a launch on Sat, 03 Apr 1965 UTC launched from the Air Force Western Test Range (AFWTR). Debris objects in space refer to the collection of defunct objects orbiting the Earth. Examples of debris include non-operational satellites, rocket bodies, and fragments generated from explosions, collisions, or faulty payload assembly.

Loading next visibility...
Identifier
27545, 1965-027BH
Orbit
LEO
Country
Flag of USUS
Related business
Manufacturer
Unknown
Mission
Spacecraft
Bus & Motor
Unknown
Mass
Unknown
Launch date (UTC)
1965-04-03 (61 years ago)
Launch vehicle
Unknown
Launch site
Air Force Western Test Range (AFWTR)
Object type
Payload
Rocket body
Debris
Shape & HBR
Unknown shape, 0.1 m
Radar Cross Section
Medium (>0.1 m² and <1 m²)

Expand to show TLE details & history
Last TLE update: 2 days ago

TLE from 2 days ago
0 OPS 4682 DEB
1 27545U 65027BH  26261.25493998  .00000557  00000-0  19502-2 0  9995
2 27545  90.2518   9.4263 0018670 357.3597  30.6183 12.95348468167303
Epoch: 2026-09-18T06:07Z
TLE epoch observation values (Epoch: 2026-09-18T06:07:06.814Z)
Latitude
28.12558°
Longitude
-79.66647°
Altitude
1,271.524 km
Speed
7.228 km/s
True Right ascension
00h 37m 10s
True Declination
27° 59' 33"
Sunlit
Object was in full shadow at epoch
Visualization orbit readout
Latitude
Unknown
Longitude
Unknown
Altitude
Unknown
Speed
Unknown
Apparent Right ascension
Unknown
Apparent Declination
Unknown
Sunlit
N/A
Visualization observer readout
Local Sidereal Time
10:04:51
Azimuth
Unknown
Elevation
Unknown
Doppler factor
Unknown
Orbital elements
Apogee altitude
1,291.793 km
Perigee altitude
1,263.207 km
Semi-major axis
7,655.637 km
Eccentricity
0.00187
Inclination
90.2518°
RAAN
9.4263°
Arg. of periapsis
357.3597°
True anomaly
30.72748°
Mean anomaly
30.6183°
Eccentric anomaly
30.67287°
Mean motion
3.2402 °/min
Orbital period
111.1 mins
BSTAR
0.0019502
Loading maneuver chart data...
Computing Atmospheric mass density...
Loading historical data...
Loading historical data...
Loading historical data...
Loading historical data...
Loading historical data...
Loading historical data...
Loading historical data...

Documentation

Showing up to 5 results
|